Wind_Speed
35 37 37 39 45 50 52 53 52 51 54 56 57 57 56 60 61 65 68 69 66 65 66 61 57 54 57 59 63 60 52 46 39 36 35 32 31 34 29 39 45 49 53 53
37 33 33 36 40 44 48 48 49 49 50 56 57 58 57 55 55 58 65 66 68 68 66 63 62 60 61 64 62 59 47 42 36 30 31 36 37 38 37 39 41 47 51 49
30 27 30 34 37 40 43 45 45 46 50 54 56 58 57 55 56 56 58 58 60 63 63 64 63 63 61 60 57 55 44 31 35 34 35 35 36 38 40 39 43 47 46 48
25 28 29 31 33 36 42 46 47 48 50 55 57 58 57 57 56 51 52 55 58 59 60 62 62 62 62 58 55 54 53 48 32 33 32 32 37 37 39 41 41 40 46 53
28 34 31 29 26 31 38 43 48 48 51 53 57 60 58 57 56 51 50 52 51 53 55 56 57 56 55 55 54 55 59 61 56 52 49 44 45 46 46 45 45 44 45 44
32 27 27 19 21 25 32 39 38 38 41 53 56 60 61 57 55 51 45 45 45 47 51 52 52 47 43 42 46 49 55 56 57 50 48 45 50 51 47 44 43 44 41 45
31 27 27 27 25 25 34 38 38 36 38 54 54 54 59 54 46 39 41 35 34 38 42 33 25 26 33 35 38 41 46 49 46 45 43 38 37 36 35 36 37 37 38 40
30 29 29 24 23 28 39 40 41 38 42 45 28 41 46 37 40 40 41 44 44 41 34 35 33 26 30 37 45 47 45 43 38 35 35 36 38 41 42 43 45 46 46 47
24 23 24 20 23 24 33 38 28 30 26 27 31 31 33 32 33 33 39 50 53 42 32 31 36 34 38 41 42 36 34 37 40 41 41 42 43 45 46 49 50 51 51 51
23 24 21 26 22 23 25 28 27 30 25 17 20 19 27 33 23 23 27 32 33 35 34 31 29 31 32 34 34 32 33 37 42 41 42 44 45 47 49 50 50 51 52 53
30 29 30 32 27 24 24 30 30 22 21 18 18 24 28 31 32 23 30 34 31 25 25 24 23 27 30 32 32 32 30 32 37 39 42 43 45 47 46 45 46 46 48 50
29 32 33 29 26 24 26 25 26 22 25 21 19 26 36 32 33 33 30 37 30 25 23 21 22 26 27 25 22 23 26 27 31 35 37 39 38 38 40 44 47 50 52 55
32 32 34 32 28 29 26 24 23 25 24 25 21 16 23 30 31 29 28 37 37 29 26 26 22 24 22 18 17 17 22 27 32 32 31 31 32 37 41 45 49 51 54 57
32 35 32 26 26 27 26 23 24 28 28 22 20 20 24 22 24 33 38 39 34 34 29 30 27 25 22 22 20 28 32 31 28 28 29 30 35 40 45 50 54 57 59 62
34 32 29 24 29 27 27 29 26 30 27 27 22 20 18 26 21 32 38 34 32 30 30 16 14 16 22 22 28 32 30 28 25 27 31 35 39 44 48 53 57 59 59 61
36 29 28 25 19 25 27 29 30 30 25 28 28 23 20 19 16 5 11 7 20 31 38 11 20 18 22 24 27 29 28 28 30 32 35 39 45 49 54 57 56 56 56 52
38 32 27 24 22 26 28 29 28 28 28 27 27 24 23 22 12 10 12 14 23 34 22 15 16 18 22 26 29 30 30 32 35 38 42 46 51 56 57 54 52 50 48 50
37 37 33 30 26 28 28 32 31 26 26 26 25 24 21 21 20 18 17 18 20 18 14 18 24 24 25 29 30 30 32 36 39 43 45 49 56 55 53 50 47 45 47 51
36 41 39 36 33 31 31 24 33 33 28 32 36 30 21 18 20 20 12 9 16 26 23 19 23 26 30 31 32 34 36 40 43 46 50 55 55 52 50 47 44 45 46 42
34 34 37 36 32 31 28 25 19 22 19 17 22 23 22 13 6 11 12 14 13 17 23 24 28 31 33 32 32 35 39 42 47 51 54 58 54 50 48 45 43 44 43 43
35 26 34 30 29 27 24 29 32 26 20 20 20 17 16 16 16 18 18 18 18 20 23 26 28 30 31 32 35 39 44 47 51 53 56 55 49 47 45 43 43 40 40 37
27 27 28 35 38 36 29 31 30 26 24 15 15 17 17 17 17 18 20 22 24 25 27 29 31 32 33 36 39 43 46 49 50 53 54 50 46 43 43 39 36 35 34 35
35 26 18 20 23 26 27 29 20 17 19 18 18 20 20 22 23 23 24 25 27 29 30 32 33 34 35 37 39 41 46 47 50 52 49 45 40 37 30 29 29 32 34 35
40 33 26 24 22 17 15 15 17 18 20 22 22 20 21 23 25 26 26 28 29 30 31 32 33 34 35 36 39 44 46 48 49 47 46 36 28 26 26 25 29 31 30 34
39 27 26 28 26 20 18 19 22 24 23 20 21 24 25 27 28 29 30 31 31 32 33 35 36 36 36 39 45 47 47 47 47 46 34 25 23 23 24 27 28 27 31 34
32 19 19 21 24 25 24 23 26 25 24 24 25 25 26 27 28 30 32 32 33 34 34 35 36 38 40 43 46 46 46 46 44 36 24 22 21 21 24 26 26 27 32 38
Wind_Direction
202 210 211 210 211 212 215 218 217 216 220 225 226 224 221 224 223 226 232 240 245 250 252 256 262 261 267 269 272 276 276 277 278 275 273 264 271 277 287 276 268 267 275 283
194 199 205 208 209 212 215 218 217 215 219 225 229 230 226 223 225 225 231 235 241 247 252 254 258 262 267 269 271 277 279 279 280 278 276 275 273 276 276 278 275 266 270 277
190 191 196 201 206 210 214 217 218 216 217 224 229 230 231 227 224 226 229 236 242 245 250 253 258 260 263 269 272 276 274 270 274 275 280 281 281 281 283 279 278 282 283 285
172 177 186 196 201 208 215 217 218 216 217 221 228 234 232 234 230 225 231 236 239 243 247 251 255 258 260 264 267 271 273 275 272 269 270 279 288 284 286 284 284 284 288 288
174 187 189 190 195 204 210 213 215 216 220 220 223 230 231 236 238 234 232 236 242 245 245 249 253 255 259 261 263 266 270 276 283 279 278 284 284 288 285 285 286 286 287 285
188 188 188 189 213 206 201 209 208 212 220 223 225 229 231 232 237 242 245 242 242 249 255 256 259 262 263 265 263 263 264 269 270 275 277 277 279 276 276 279 281 278 278 278
190 190 186 193 198 197 201 193 193 203 212 223 225 230 233 235 239 240 236 233 238 242 244 247 261 259 258 255 257 257 259 262 267 270 273 272 271 278 283 284 283 282 280 278
194 189 198 198 196 187 186 189 193 201 217 226 214 230 233 242 236 234 230 228 233 238 244 249 248 248 255 255 260 259 261 261 262 263 264 268 272 273 273 274 276 276 275 275
193 194 184 180 169 172 184 194 193 215 216 214 217 214 208 207 203 208 220 229 233 235 240 230 231 228 235 241 247 248 247 252 254 256 261 263 265 269 271 272 275 278 281 282
176 172 170 156 162 174 186 196 208 213 226 229 222 205 206 202 194 210 212 221 225 226 228 225 221 223 230 235 240 245 250 255 255 259 265 269 269 268 270 272 273 276 278 280
176 170 167 172 182 189 194 196 205 235 254 229 236 215 209 208 219 224 223 225 218 211 215 219 225 230 231 237 245 252 261 267 270 271 271 272 272 273 276 277 279 280 281 281
185 172 174 178 179 189 202 216 216 227 239 233 248 250 242 251 257 240 221 218 219 207 221 225 236 244 245 242 251 267 271 273 272 270 270 272 276 282 286 287 287 286 287 288
190 182 180 191 190 184 190 201 220 234 242 247 249 241 241 250 247 236 229 220 222 213 215 225 234 236 239 242 268 281 269 259 257 263 273 279 283 285 285 284 284 287 288 289
194 190 188 191 195 199 206 213 217 234 237 245 245 258 272 263 262 225 226 225 228 224 222 224 235 249 259 261 267 277 270 268 269 271 274 278 277 280 284 287 289 290 291 289
196 197 192 196 195 214 218 228 226 235 238 237 245 264 263 266 294 217 218 228 230 230 233 239 260 255 266 260 263 270 272 275 277 278 279 282 288 292 294 295 296 294 292 291
197 203 196 196 205 205 216 227 235 239 243 237 240 246 257 272 293 184 167 236 250 246 241 268 273 241 254 266 277 283 281 276 277 284 293 296 299 300 300 298 296 296 295 293
198 207 212 209 216 215 222 233 236 243 242 247 252 260 270 279 281 281 265 269 277 240 235 286 265 264 270 278 277 277 279 286 293 295 295 299 303 302 300 298 296 294 293 293
205 210 217 218 218 220 232 233 236 246 256 261 265 271 263 271 276 266 280 283 281 283 271 252 261 280 279 276 279 278 284 288 291 294 298 301 305 303 301 299 295 296 297 299
212 215 221 226 226 231 234 238 237 240 254 269 272 280 278 286 290 292 307 287 258 253 257 262 265 271 275 278 274 277 283 291 295 298 302 307 306 304 302 299 299 300 301 301
212 217 223 230 234 238 238 243 247 246 261 261 255 261 268 285 299 291 267 256 253 246 255 261 268 272 273 272 278 285 294 297 300 302 306 309 307 304 301 299 299 299 298 301
226 228 229 232 233 235 240 250 250 246 256 269 268 268 254 259 260 264 274 280 278 272 269 271 274 279 283 285 289 292 295 298 300 303 306 305 302 298 297 296 296 296 300 301
226 223 230 231 235 240 250 256 256 259 255 269 255 243 256 261 263 267 272 276 280 284 287 288 287 287 287 288 289 290 292 295 301 305 304 301 299 295 295 294 294 299 302 305
217 216 236 239 235 235 249 253 233 219 235 256 261 252 252 255 257 263 269 273 276 278 279 278 279 280 280 283 285 290 295 299 302 303 301 301 297 297 295 298 302 304 309 310
229 233 232 231 230 221 199 189 193 210 223 237 242 249 255 263 268 269 273 277 278 280 281 282 282 283 284 286 292 296 298 301 305 305 304 299 297 299 302 305 306 308 312 323
230 227 244 230 209 206 217 205 204 219 225 233 241 250 258 265 270 276 278 280 282 284 285 285 285 285 288 292 295 298 302 307 306 305 299 293 296 303 307 310 311 317 326 326
200 190 195 188 197 206 214 218 225 231 240 246 252 257 262 267 270 273 276 278 280 282 284 285 285 287 291 294 297 300 306 307 305 302 289 291 300 304 313 314 320 328 328 335
Height
5687 5697 5707 5717 5724 5731 5737 5745 5756 5766 5770 5775 5781 5787 5796 5802 5810 5817 5819 5821 5825 5824 5829 5834 5838 5843 5846 5848 5848 5855 5866 5866 5865 5863 5863 5864 5865 5867 5863 5864 5863 5861 5862 5860
5685 5695 5704 5710 5717 5725 5731 5739 5749 5759 5762 5767 5772 5778 5786 5796 5803 5809 5812 5816 5819 5818 5821 5826 5830 5834 5837 5838 5839 5840 5853 5854 5855 5854 5853 5851 5853 5854 5855 5855 5854 5853 5852 5849
5684 5693 5697 5704 5712 5720 5727 5734 5742 5752 5755 5757 5763 5769 5777 5786 5793 5800 5805 5809 5813 5815 5814 5816 5821 5826 5829 5830 5831 5831 5836 5845 5845 5845 5843 5843 5843 5842 5843 5844 5843 5839 5836 5836
5681 5688 5695 5701 5707 5714 5719 5726 5733 5741 5746 5750 5755 5760 5769 5775 5783 5792 5800 5804 5806 5807 5807 5808 5813 5816 5820 5822 5822 5823 5822 5828 5837 5837 5837 5835 5834 5833 5831 5830 5829 5826 5824 5822
5682 5684 5690 5697 5703 5707 5713 5717 5723 5730 5736 5740 5745 5750 5761 5767 5774 5786 5790 5794 5795 5798 5802 5803 5805 5809 5810 5813 5815 5815 5815 5814 5814 5821 5825 5826 5824 5822 5820 5819 5818 5816 5815 5811
5676 5683 5688 5695 5698 5701 5706 5710 5716 5722 5726 5729 5739 5742 5748 5761 5770 5774 5779 5785 5788 5789 5792 5795 5796 5798 5800 5803 5805 5808 5809 5808 5806 5804 5807 5810 5813 5812 5810 5808 5808 5806 5805 5801
5673 5680 5685 5687 5691 5695 5697 5702 5709 5716 5719 5728 5733 5733 5743 5756 5759 5766 5772 5776 5778 5781 5785 5788 5791 5791 5791 5792 5796 5797 5797 5798 5798 5798 5795 5793 5794 5795 5795 5795 5793 5791 5790 5789
5672 5677 5680 5686 5689 5690 5692 5698 5703 5709 5714 5720 5729 5727 5740 5748 5751 5754 5761 5764 5767 5773 5779 5782 5785 5784 5785 5786 5787 5788 5790 5789 5789 5788 5786 5785 5785 5785 5783 5781 5780 5779 5778 5778
5672 5677 5681 5686 5688 5690 5695 5696 5707 5708 5718 5718 5721 5730 5736 5739 5744 5750 5754 5756 5760 5766 5771 5775 5776 5777 5779 5782 5782 5783 5783 5783 5782 5780 5779 5777 5776 5776 5775 5773 5771 5768 5767 5764
5671 5675 5681 5685 5689 5693 5696 5704 5706 5707 5712 5715 5720 5726 5732 5737 5740 5746 5750 5753 5757 5761 5765 5768 5770 5771 5774 5777 5778 5778 5778 5776 5774 5773 5772 5772 5770 5768 5765 5764 5762 5760 5757 5754
5669 5675 5681 5684 5686 5691 5694 5697 5703 5708 5710 5714 5719 5726 5726 5729 5735 5741 5745 5748 5751 5755 5758 5762 5765 5768 5771 5772 5773 5772 5771 5769 5767 5766 5764 5761 5759 5758 5756 5755 5752 5749 5744 5740
5670 5673 5679 5684 5686 5690 5693 5698 5702 5705 5708 5712 5715 5719 5721 5725 5729 5732 5737 5743 5747 5748 5752 5757 5761 5763 5765 5767 5767 5767 5765 5763 5761 5758 5755 5754 5753 5752 5748 5745 5740 5736 5731 5728
5667 5672 5676 5681 5686 5689 5692 5695 5700 5703 5706 5709 5713 5717 5719 5720 5720 5725 5730 5735 5740 5744 5746 5751 5754 5757 5759 5760 5761 5759 5759 5757 5754 5752 5750 5749 5747 5744 5740 5735 5730 5728 5724 5720
5665 5670 5675 5680 5685 5688 5690 5692 5696 5700 5703 5706 5710 5714 5715 5715 5716 5721 5724 5731 5736 5740 5742 5743 5746 5749 5752 5753 5752 5752 5750 5749 5747 5746 5744 5742 5738 5734 5730 5727 5722 5717 5712 5707
5661 5668 5674 5677 5681 5684 5687 5690 5693 5696 5699 5703 5707 5710 5713 5713 5712 5713 5719 5727 5732 5735 5739 5741 5743 5742 5742 5742 5742 5742 5743 5742 5739 5736 5732 5729 5727 5723 5718 5713 5707 5701 5694 5688
5658 5664 5670 5675 5678 5681 5685 5687 5690 5692 5696 5699 5703 5708 5710 5713 5712 5715 5718 5721 5725 5725 5729 5733 5734 5732 5735 5736 5737 5736 5733 5730 5727 5724 5721 5718 5716 5711 5705 5699 5691 5685 5678 5672
5655 5661 5667 5672 5675 5679 5683 5683 5686 5687 5691 5695 5698 5703 5706 5709 5712 5712 5716 5717 5714 5711 5722 5724 5727 5729 5728 5726 5723 5722 5720 5718 5717 5715 5712 5709 5703 5697 5690 5684 5678 5673 5668 5662
5654 5659 5665 5669 5674 5676 5679 5681 5683 5686 5687 5690 5694 5698 5702 5705 5706 5710 5712 5712 5712 5714 5717 5718 5720 5718 5717 5716 5715 5715 5714 5712 5710 5707 5702 5697 5691 5683 5677 5672 5667 5661 5655 5649
5652 5656 5660 5665 5670 5673 5675 5681 5685 5686 5687 5686 5687 5690 5693 5697 5699 5701 5704 5705 5705 5708 5707 5709 5711 5711 5710 5710 5710 5709 5707 5704 5699 5694 5689 5683 5676 5670 5664 5659 5654 5649 5644 5637
5648 5653 5658 5660 5665 5668 5673 5677 5679 5683 5686 5687 5688 5690 5691 5692 5695 5697 5698 5700 5700 5700 5701 5702 5703 5704 5705 5705 5703 5700 5696 5692 5688 5682 5676 5669 5663 5658 5653 5648 5644 5639 5634 5628
5645 5650 5654 5658 5662 5665 5670 5672 5676 5682 5688 5685 5687 5688 5690 5691 5692 5691 5691 5692 5693 5695 5695 5696 5697 5697 5696 5694 5692 5690 5687 5683 5678 5673 5666 5660 5654 5649 5644 5639 5634 5629 5625 5619
5643 5647 5649 5654 5658 5662 5666 5668 5670 5677 5679 5681 5682 5684 5685 5686 5686 5686 5687 5688 5688 5689 5689 5689 5688 5688 5687 5686 5685 5682 5679 5674 5669 5663 5656 5650 5644 5639 5634 5629 5625 5621 5616 5610
5639 5642 5647 5652 5655 5661 5663 5663 5666 5670 5674 5677 5678 5680 5681 5681 5683 5684 5685 5686 5686 5686 5685 5684 5683 5682 5681 5680 5678 5675 5670 5665 5661 5654 5647 5640 5634 5629 5624 5621 5617 5612 5607 5601
5636 5641 5645 5648 5652 5657 5658 5659 5661 5666 5669 5672 5674 5675 5676 5677 5678 5679 5680 5680 5679 5678 5677 5675 5675 5674 5672 5670 5668 5664 5659 5655 5648 5641 5634 5629 5625 5621 5617 5614 5610 5604 5599 5593
5633 5638 5641 5643 5649 5654 5656 5657 5659 5662 5666 5669 5670 5671 5671 5672 5672 5673 5672 5671 5671 5670 5668 5667 5666 5664 5663 5661 5657 5652 5648 5642 5636 5630 5624 5621 5618 5615 5611 5607 5602 5596 5591 5586
5628 5635 5642 5645 5648 5650 5652 5655 5657 5661 5664 5665 5665 5666 5666 5666 5666 5666 5665 5664 5663 5662 5661 5659 5657 5656 5654 5651 5646 5641 5637 5631 5625 5620 5617 5615 5612 5609 5605 5600 5594 5590 5585 5578